BAW185 EGLL-KEWR

Flight info

Callsign BAW185
Flight time N/A
Altitude 36000
Route CPT L9 BUCGO DCT FELCA DCT OFSOX DCT BANBA DCT LIMRI/M082F360 NATF TUDEP/N0471F380 N520C TUSKY Q475 COPLY DCT BOS DCT NELIE FLOSI4
Aircraft B772/H-SDE2E3FGHIJ5LORVWXY/LB1D1

Departure

Time N/A
Airport London Heathrow Airport (EGLL)

Arrival

Time 2026-05-05 20:40
Airport Newark Liberty International Airport (KEWR)
Time Latitude Longitude Altitude Speed Heading
2026-05-05 15:53 53.05240 -29.06260 36302 ft 468 kts 271°
2026-05-05 15:53 53.05054 -29.11648 36297 ft 467 kts 271°
2026-05-05 15:54 53.04681 -29.22392 36286 ft 464 kts 270°
2026-05-05 15:54 53.04296 -29.33067 36286 ft 462 kts 270°
2026-05-05 15:55 53.03901 -29.43691 36290 ft 459 kts 270°
2026-05-05 15:55 53.03501 -29.54248 36292 ft 457 kts 270°
2026-05-05 15:56 53.03095 -29.64782 36291 ft 456 kts 270°
2026-05-05 15:56 53.02681 -29.75292 36274 ft 456 kts 269°
2026-05-05 15:57 53.02259 -29.85800 36291 ft 456 kts 269°
2026-05-05 15:57 53.01825 -29.96331 36297 ft 458 kts 268°
2026-05-05 15:58 53.01606 -30.06899 36289 ft 457 kts 275°
2026-05-05 15:58 53.02131 -30.17419 36296 ft 457 kts 278°
2026-05-05 15:59 53.02731 -30.27956 36289 ft 459 kts 277°
2026-05-05 15:59 53.03223 -30.38530 36279 ft 460 kts 275°
2026-05-05 16:00 53.03642 -30.49131 36283 ft 460 kts 275°
2026-05-05 16:00 53.04036 -30.59815 36287 ft 460 kts 275°
2026-05-05 16:01 53.04419 -30.70421 36280 ft 460 kts 275°
2026-05-05 16:01 53.04795 -30.81023 36275 ft 460 kts 275°
2026-05-05 16:02 53.05164 -30.91638 36276 ft 460 kts 274°
2026-05-05 16:02 53.05523 -31.02242 36267 ft 460 kts 273°
2026-05-05 16:03 53.05873 -31.12855 36276 ft 459 kts 273°
2026-05-05 16:03 53.06213 -31.23458 36268 ft 459 kts 273°
2026-05-05 16:04 53.06543 -31.34062 36262 ft 459 kts 273°
2026-05-05 16:04 53.06864 -31.44672 36262 ft 459 kts 273°
2026-05-05 16:05 53.07176 -31.55283 36258 ft 459 kts 273°
2026-05-05 16:05 53.07480 -31.65893 36264 ft 460 kts 271°
2026-05-05 16:06 53.07772 -31.76524 36250 ft 461 kts 271°
2026-05-05 16:06 53.08056 -31.87194 36254 ft 462 kts 271°
2026-05-05 16:07 53.08332 -31.97874 36249 ft 463 kts 271°
2026-05-05 16:07 53.08598 -32.08572 36242 ft 463 kts 271°
2026-05-05 16:08 53.08857 -32.19338 36243 ft 462 kts 271°
2026-05-05 16:08 53.09064 -32.28231 36230 ft 463 kts 270°
2026-05-05 16:09 53.09302 -32.38932 36238 ft 463 kts 270°
2026-05-05 16:09 53.09532 -32.49649 36237 ft 464 kts 270°
2026-05-05 16:10 53.09752 -32.60375 36235 ft 465 kts 270°
2026-05-05 16:10 53.09963 -32.71142 36231 ft 466 kts 270°
2026-05-05 16:11 53.10165 -32.81922 36233 ft 467 kts 270°
2026-05-05 16:12 53.10541 -33.03527 36215 ft 467 kts 269°
2026-05-05 16:13 53.10957 -33.30612 36214 ft 467 kts 269°
2026-05-05 16:13 53.11105 -33.41400 36217 ft 466 kts 269°
2026-05-05 16:14 53.11373 -33.63050 36204 ft 469 kts 269°
2026-05-05 16:15 53.11602 -33.84803 36199 ft 471 kts 268°
2026-05-05 16:16 53.11794 -34.06674 36180 ft 475 kts 268°
2026-05-05 16:17 53.11912 -34.23132 36171 ft 473 kts 268°
2026-05-05 16:18 53.12006 -34.39562 36173 ft 474 kts 267°
2026-05-05 16:19 53.12078 -34.56016 36163 ft 474 kts 267°
2026-05-05 16:19 53.12128 -34.72504 36156 ft 475 kts 266°
2026-05-05 16:20 53.12158 -34.94595 36139 ft 476 kts 266°
2026-05-05 16:22 53.12139 -35.22139 36158 ft 477 kts 266°
2026-05-05 16:23 53.12076 -35.44291 36133 ft 480 kts 265°
2026-05-05 16:23 53.12004 -35.60961 36134 ft 481 kts 265°
2026-05-05 16:24 53.11942 -35.72101 36131 ft 481 kts 265°
2026-05-05 16:25 53.11829 -35.88802 36134 ft 481 kts 265°
2026-05-05 16:25 53.11694 -36.05477 36124 ft 479 kts 265°
2026-05-05 16:26 53.11480 -36.27535 36122 ft 474 kts 265°
2026-05-05 16:27 53.11357 -36.38493 36125 ft 473 kts 265°
2026-05-05 16:27 53.11225 -36.49416 36126 ft 472 kts 265°
2026-05-05 16:28 53.11082 -36.60392 36128 ft 471 kts 265°
2026-05-05 16:28 53.10931 -36.71272 36126 ft 470 kts 265°
2026-05-05 16:29 53.10770 -36.82120 36128 ft 468 kts 265°
2026-05-05 16:29 53.10600 -36.92942 36152 ft 468 kts 264°
2026-05-05 16:30 53.10419 -37.03786 36133 ft 470 kts 264°
2026-05-05 16:30 53.10226 -37.14704 36166 ft 474 kts 264°
2026-05-05 16:31 53.10023 -37.25680 36143 ft 475 kts 264°
2026-05-05 16:31 53.09811 -37.36679 36131 ft 475 kts 264°
2026-05-05 16:32 53.09590 -37.47648 36129 ft 474 kts 264°
2026-05-05 16:32 53.09358 -37.58590 36127 ft 472 kts 264°
2026-05-05 16:33 53.09117 -37.69471 36132 ft 470 kts 264°
2026-05-05 16:33 53.08867 -37.80321 36152 ft 469 kts 264°
2026-05-05 16:34 53.08607 -37.91138 36143 ft 468 kts 264°
2026-05-05 16:34 53.08338 -38.01940 36130 ft 467 kts 263°
2026-05-05 16:35 53.08060 -38.12721 36129 ft 466 kts 263°
2026-05-05 16:35 53.07772 -38.23496 36134 ft 466 kts 263°
2026-05-05 16:36 53.07472 -38.34357 36134 ft 467 kts 263°
2026-05-05 16:36 53.07164 -38.45148 36143 ft 468 kts 263°
2026-05-05 16:37 53.06846 -38.55960 36134 ft 468 kts 263°
2026-05-05 16:37 53.06519 -38.66775 36123 ft 468 kts 263°
2026-05-05 16:38 53.06181 -38.77581 36126 ft 468 kts 263°
2026-05-05 16:38 53.05833 -38.88397 36128 ft 469 kts 263°
2026-05-05 16:39 53.05476 -38.99216 36127 ft 469 kts 263°
2026-05-05 16:39 53.05108 -39.10032 36127 ft 469 kts 263°
2026-05-05 16:40 53.04731 -39.20856 36126 ft 469 kts 263°
2026-05-05 16:40 53.04343 -39.31681 36127 ft 469 kts 263°
2026-05-05 16:41 53.03946 -39.42505 36119 ft 469 kts 263°
2026-05-05 16:41 53.03539 -39.53327 36120 ft 469 kts 262°
2026-05-05 16:42 53.03121 -39.64151 36144 ft 470 kts 262°
2026-05-05 16:42 53.02763 -39.73244 36121 ft 471 kts 262°
2026-05-05 16:43 53.02256 -39.85847 36113 ft 471 kts 262°
2026-05-05 16:43 53.01883 -39.94935 36114 ft 471 kts 262°
2026-05-05 16:44 53.01394 -40.05772 36114 ft 470 kts 261°
2026-05-05 16:44 53.00770 -40.16565 36108 ft 470 kts 260°
2026-05-05 16:45 53.00116 -40.27356 36124 ft 469 kts 261°
2026-05-05 16:45 52.99467 -40.38135 36111 ft 469 kts 261°
2026-05-05 16:46 52.98820 -40.48898 36107 ft 468 kts 261°
2026-05-05 16:46 52.98167 -40.59658 36106 ft 469 kts 260°
2026-05-05 16:47 52.97502 -40.70432 36098 ft 469 kts 260°
2026-05-05 16:47 52.96828 -40.81203 36105 ft 469 kts 260°
2026-05-05 16:48 52.96143 -40.91974 36103 ft 470 kts 260°
2026-05-05 16:48 52.95449 -41.02740 36095 ft 469 kts 260°
2026-05-05 16:49 52.94746 -41.13491 36092 ft 469 kts 260°
2026-05-05 16:49 52.94029 -41.24295 36086 ft 468 kts 260°
2026-05-05 16:50 52.93309 -41.35002 36086 ft 467 kts 260°
2026-05-05 16:50 52.92578 -41.45712 36113 ft 468 kts 259°
2026-05-05 16:51 52.91838 -41.56418 36089 ft 468 kts 259°
2026-05-05 16:51 52.91088 -41.67129 36075 ft 468 kts 259°
2026-05-05 16:52 52.90329 -41.77821 36073 ft 468 kts 259°
2026-05-05 16:52 52.89560 -41.88518 36078 ft 467 kts 259°
2026-05-05 16:53 52.88782 -41.99202 36067 ft 467 kts 259°
2026-05-05 16:53 52.87993 -42.09901 36128 ft 470 kts 259°
2026-05-05 16:54 52.87593 -42.15270 36326 ft 470 kts 259°
2026-05-05 16:54 52.87191 -42.20634 36610 ft 468 kts 259°
2026-05-05 16:54 52.86789 -42.25978 36885 ft 467 kts 259°
2026-05-05 16:54 52.86385 -42.31312 37115 ft 467 kts 259°
2026-05-05 16:55 52.85977 -42.36659 37257 ft 469 kts 259°
2026-05-05 16:55 52.85565 -42.42018 37414 ft 470 kts 259°
2026-05-05 16:55 52.85152 -42.47374 37643 ft 469 kts 259°
2026-05-05 16:55 52.84736 -42.52725 37873 ft 469 kts 259°
2026-05-05 16:56 52.84318 -42.58081 37975 ft 471 kts 259°
2026-05-05 16:56 52.83895 -42.63459 38043 ft 473 kts 259°
2026-05-05 16:56 52.83037 -42.74268 38039 ft 474 kts 259°
2026-05-05 16:57 52.82172 -42.85073 38031 ft 468 kts 259°
2026-05-05 16:57 52.81310 -42.95698 38036 ft 465 kts 259°
2026-05-05 16:58 52.80443 -43.06258 38027 ft 463 kts 259°
2026-05-05 16:58 52.79566 -43.16805 38029 ft 463 kts 259°
2026-05-05 16:59 52.78678 -43.27379 38036 ft 466 kts 259°
2026-05-05 16:59 52.77776 -43.37993 38030 ft 468 kts 259°
2026-05-05 17:00 52.76860 -43.48665 38016 ft 470 kts 259°
2026-05-05 17:00 52.75932 -43.59370 38015 ft 472 kts 259°
2026-05-05 17:01 52.74992 -43.70100 38007 ft 473 kts 259°
2026-05-05 17:01 52.74040 -43.80849 37994 ft 473 kts 259°
2026-05-05 17:02 52.73078 -43.91588 37999 ft 473 kts 259°
2026-05-05 17:02 52.72110 -44.02290 37989 ft 471 kts 259°
2026-05-05 17:03 52.71135 -44.12960 38004 ft 470 kts 259°
2026-05-05 17:03 52.69699 -44.23369 37975 ft 465 kts 255°
2026-05-05 17:04 52.68606 -44.33962 37973 ft 467 kts 259°
2026-05-05 17:04 52.67702 -44.44567 37984 ft 468 kts 259°
2026-05-05 17:05 52.66741 -44.55167 37977 ft 468 kts 259°
2026-05-05 17:05 52.65716 -44.65760 37963 ft 468 kts 258°
2026-05-05 17:06 52.64662 -44.76344 37961 ft 468 kts 258°
2026-05-05 17:06 52.63598 -44.86919 37948 ft 468 kts 258°
2026-05-05 17:07 52.62527 -44.97484 37944 ft 468 kts 258°
2026-05-05 17:07 52.61448 -45.08046 37942 ft 468 kts 258°
2026-05-05 17:08 52.60361 -45.18589 37944 ft 467 kts 258°
2026-05-05 17:08 52.59265 -45.29126 37932 ft 467 kts 257°
2026-05-05 17:09 52.58161 -45.39649 37936 ft 467 kts 258°
2026-05-05 17:09 52.57047 -45.50164 37929 ft 467 kts 257°
2026-05-05 17:10 52.55924 -45.60678 37938 ft 467 kts 258°
2026-05-05 17:10 52.54792 -45.71179 37932 ft 467 kts 258°
2026-05-05 17:11 52.53651 -45.81673 37923 ft 466 kts 257°
2026-05-05 17:11 52.52502 -45.92147 37926 ft 466 kts 257°
2026-05-05 17:12 52.51338 -46.02672 37915 ft 466 kts 257°
2026-05-05 17:12 52.50172 -46.13125 37913 ft 465 kts 257°
2026-05-05 17:13 52.48997 -46.23571 37918 ft 465 kts 257°
2026-05-05 17:13 52.47814 -46.34001 37893 ft 465 kts 257°
2026-05-05 17:14 52.46623 -46.44414 37899 ft 464 kts 257°
2026-05-05 17:14 52.45422 -46.54821 37895 ft 464 kts 257°
2026-05-05 17:15 52.44215 -46.65209 37880 ft 464 kts 257°
2026-05-05 17:15 52.42997 -46.75605 37889 ft 464 kts 257°
2026-05-05 17:16 52.41977 -46.84237 37892 ft 464 kts 257°
2026-05-05 17:16 52.40744 -46.94608 37878 ft 465 kts 257°
2026-05-05 17:17 52.39499 -47.04993 37874 ft 464 kts 257°
2026-05-05 17:17 52.38238 -47.15436 37871 ft 464 kts 257°
2026-05-05 17:18 52.36977 -47.25793 37852 ft 464 kts 257°
2026-05-05 17:18 52.35707 -47.36144 37867 ft 464 kts 257°
2026-05-05 17:19 52.34428 -47.46483 37862 ft 464 kts 256°
2026-05-05 17:19 52.33141 -47.56815 37843 ft 464 kts 256°
2026-05-05 17:20 52.31846 -47.67135 37859 ft 463 kts 256°
2026-05-05 17:20 52.30541 -47.77451 37848 ft 464 kts 256°
2026-05-05 17:21 52.29225 -47.87774 37842 ft 464 kts 256°
2026-05-05 17:22 52.27234 -48.03254 37840 ft 465 kts 256°
2026-05-05 17:22 52.25897 -48.13561 37828 ft 464 kts 256°
2026-05-05 17:23 52.24549 -48.23869 37830 ft 464 kts 256°
2026-05-05 17:23 52.23194 -48.34161 37829 ft 464 kts 256°
2026-05-05 17:24 52.21829 -48.44446 37812 ft 464 kts 256°
2026-05-05 17:24 52.20448 -48.54786 37817 ft 463 kts 256°
2026-05-05 17:25 52.19067 -48.65049 37823 ft 464 kts 256°
2026-05-05 17:25 52.17677 -48.75306 37801 ft 464 kts 256°
2026-05-05 17:26 52.16277 -48.85571 37799 ft 464 kts 256°
2026-05-05 17:26 52.14868 -48.95824 37804 ft 464 kts 256°
2026-05-05 17:27 52.13449 -49.06075 37804 ft 464 kts 256°
2026-05-05 17:27 52.12024 -49.16306 37786 ft 463 kts 256°
2026-05-05 17:28 52.10592 -49.26516 37789 ft 462 kts 256°
2026-05-05 17:28 52.09154 -49.36702 37785 ft 461 kts 256°
2026-05-05 17:29 52.07710 -49.46858 37776 ft 462 kts 256°
2026-05-05 17:29 52.06256 -49.57019 37775 ft 462 kts 256°
2026-05-05 17:30 52.04793 -49.67173 37778 ft 462 kts 256°
2026-05-05 17:30 52.03319 -49.77338 37759 ft 462 kts 256°
2026-05-05 17:31 52.01838 -49.87492 37759 ft 462 kts 256°
2026-05-05 17:31 52.00343 -49.97648 37765 ft 462 kts 255°
2026-05-05 17:32 51.98273 -50.07498 37762 ft 462 kts 248°
2026-05-05 17:32 51.95897 -50.17177 37746 ft 462 kts 248°
2026-05-05 17:33 51.93512 -50.26918 37742 ft 462 kts 248°
2026-05-05 17:33 51.91157 -50.36582 37761 ft 462 kts 248°
2026-05-05 17:34 51.88796 -50.46258 37756 ft 462 kts 248°
2026-05-05 17:34 51.86428 -50.55926 37751 ft 463 kts 248°
2026-05-05 17:35 51.84046 -50.65606 37742 ft 463 kts 248°
2026-05-05 17:35 51.81653 -50.75285 37733 ft 463 kts 248°
2026-05-05 17:36 51.79255 -50.84942 37735 ft 463 kts 248°
2026-05-05 17:36 51.76849 -50.94591 37730 ft 463 kts 248°
2026-05-05 17:37 51.74438 -51.04218 37726 ft 463 kts 248°
2026-05-05 17:37 51.72018 -51.13836 37729 ft 463 kts 248°
2026-05-05 17:38 51.69591 -51.23442 37729 ft 462 kts 248°
2026-05-05 17:38 51.67159 -51.33026 37729 ft 462 kts 248°
2026-05-05 17:39 51.64720 -51.42598 37727 ft 462 kts 248°
2026-05-05 17:39 51.62271 -51.52168 37725 ft 462 kts 248°
2026-05-05 17:40 51.59815 -51.61725 37723 ft 462 kts 248°
2026-05-05 17:40 51.57334 -51.71337 37724 ft 462 kts 248°
2026-05-05 17:41 51.54863 -51.80872 37723 ft 462 kts 248°
2026-05-05 17:41 51.52382 -51.90404 37719 ft 462 kts 248°
2026-05-05 17:42 51.49895 -51.99920 37711 ft 462 kts 248°
2026-05-05 17:42 51.47404 -52.09410 37718 ft 461 kts 248°
2026-05-05 17:43 51.44908 -52.18880 37722 ft 461 kts 248°
2026-05-05 17:43 51.42406 -52.28334 37714 ft 461 kts 248°
2026-05-05 17:44 51.39897 -52.37774 37713 ft 460 kts 247°
2026-05-05 17:44 51.37381 -52.47201 37707 ft 460 kts 248°
2026-05-05 17:45 51.34861 -52.56608 37720 ft 460 kts 247°
2026-05-05 17:45 51.32333 -52.66004 37718 ft 460 kts 247°
2026-05-05 17:46 51.29797 -52.75396 37714 ft 460 kts 247°
2026-05-05 17:46 51.27257 -52.84759 37715 ft 460 kts 247°
2026-05-05 17:47 51.24710 -52.94116 37715 ft 459 kts 247°
2026-05-05 17:47 51.22159 -53.03446 37716 ft 458 kts 247°
2026-05-05 17:48 51.19591 -53.12809 37712 ft 458 kts 247°
2026-05-05 17:48 51.16986 -53.22065 37713 ft 457 kts 244°
2026-05-05 17:49 51.14257 -53.29273 37715 ft 458 kts 237°
2026-05-05 17:49 51.10657 -53.37639 37724 ft 457 kts 237°
2026-05-05 17:50 51.07075 -53.45987 37711 ft 457 kts 237°
2026-05-05 17:50 51.03510 -53.54324 37720 ft 456 kts 237°
2026-05-05 17:51 50.99952 -53.62639 37718 ft 455 kts 237°
2026-05-05 17:51 50.96391 -53.70937 37704 ft 455 kts 237°
2026-05-05 17:52 50.92820 -53.79233 37720 ft 456 kts 237°
2026-05-05 17:52 50.89229 -53.87546 37723 ft 458 kts 237°
2026-05-05 17:53 50.85622 -53.95872 37721 ft 459 kts 237°
2026-05-05 17:53 50.81994 -54.04217 37725 ft 461 kts 237°
2026-05-05 17:54 50.78324 -54.12631 37716 ft 463 kts 237°
2026-05-05 17:54 50.74659 -54.21008 37731 ft 464 kts 237°
2026-05-05 17:55 50.70976 -54.29398 37731 ft 466 kts 237°
2026-05-05 17:55 50.67280 -54.37792 37725 ft 466 kts 237°
2026-05-05 17:56 50.63573 -54.46182 37716 ft 467 kts 237°
2026-05-05 17:56 50.59860 -54.54562 37726 ft 467 kts 237°
2026-05-05 17:57 50.56135 -54.62939 37734 ft 467 kts 237°
2026-05-05 17:57 50.52406 -54.71302 37736 ft 467 kts 237°
2026-05-05 17:58 50.48667 -54.79658 37738 ft 468 kts 237°
2026-05-05 17:58 50.44920 -54.88006 37740 ft 468 kts 237°
2026-05-05 17:59 50.41169 -54.96335 37737 ft 467 kts 236°
2026-05-05 17:59 50.37414 -55.04649 37734 ft 467 kts 236°
2026-05-05 18:00 50.33653 -55.12947 37724 ft 467 kts 237°
2026-05-05 18:00 50.29897 -55.21208 37734 ft 465 kts 237°
2026-05-05 18:01 50.26145 -55.29438 37733 ft 464 kts 237°
2026-05-05 18:01 50.22372 -55.37687 37733 ft 463 kts 237°
2026-05-05 18:02 50.18624 -55.45855 37748 ft 462 kts 237°
2026-05-05 18:02 50.14880 -55.53989 37742 ft 461 kts 237°
2026-05-05 18:03 50.11135 -55.62099 37731 ft 460 kts 237°
2026-05-05 18:03 50.07400 -55.70164 37739 ft 459 kts 237°
2026-05-05 18:04 50.03662 -55.78212 37738 ft 458 kts 237°
2026-05-05 18:04 49.99925 -55.86233 37737 ft 457 kts 237°
2026-05-05 18:05 49.96192 -55.94221 37745 ft 456 kts 237°
2026-05-05 18:05 49.92461 -56.02180 37751 ft 456 kts 237°
2026-05-05 18:06 49.88727 -56.10124 37753 ft 456 kts 237°
2026-05-05 18:06 49.84986 -56.18055 37748 ft 455 kts 237°
2026-05-05 18:07 49.81248 -56.25955 37760 ft 455 kts 237°
2026-05-05 18:07 49.77507 -56.33842 37758 ft 454 kts 237°
2026-05-05 18:08 49.73763 -56.41710 37769 ft 454 kts 237°
2026-05-05 18:08 49.69990 -56.49617 37760 ft 454 kts 237°
2026-05-05 18:09 49.66238 -56.57456 37761 ft 453 kts 237°
2026-05-05 18:09 49.62488 -56.65266 37775 ft 453 kts 237°
2026-05-05 18:10 49.58740 -56.73050 37776 ft 452 kts 237°
2026-05-05 18:10 49.54988 -56.80820 37761 ft 452 kts 237°
2026-05-05 18:11 49.51239 -56.88559 37776 ft 450 kts 237°
2026-05-05 18:11 49.47498 -56.96261 37783 ft 449 kts 237°
2026-05-05 18:12 49.43757 -57.03941 37810 ft 448 kts 237°
2026-05-05 18:12 49.40019 -57.11595 37790 ft 448 kts 237°
2026-05-05 18:13 49.36283 -57.19219 37804 ft 447 kts 237°
2026-05-05 18:13 49.32545 -57.26829 37805 ft 447 kts 237°
2026-05-05 18:14 49.28804 -57.34422 37804 ft 447 kts 237°
2026-05-05 18:14 49.25056 -57.42008 37818 ft 446 kts 237°
2026-05-05 18:15 49.21304 -57.49579 37804 ft 446 kts 237°
2026-05-05 18:15 49.17543 -57.57150 37806 ft 447 kts 236°
2026-05-05 18:16 49.13748 -57.64764 37824 ft 448 kts 236°
2026-05-05 18:16 49.09964 -57.72336 37831 ft 449 kts 236°
2026-05-05 18:17 49.06169 -57.79908 37822 ft 449 kts 236°
2026-05-05 18:17 49.02365 -57.87475 37843 ft 450 kts 236°
2026-05-05 18:18 48.98554 -57.95033 37844 ft 450 kts 236°
2026-05-05 18:18 48.94738 -58.02583 37868 ft 450 kts 236°
2026-05-05 18:19 48.90914 -58.10128 37864 ft 451 kts 236°
2026-05-05 18:19 48.87080 -58.17669 37877 ft 451 kts 236°
2026-05-05 18:20 48.83246 -58.25191 37874 ft 450 kts 236°
2026-05-05 18:20 48.79406 -58.32703 37887 ft 450 kts 236°
2026-05-05 18:21 48.75568 -58.40188 37864 ft 450 kts 236°
2026-05-05 18:21 48.71729 -58.47657 37897 ft 449 kts 236°
2026-05-05 18:22 48.67891 -58.55102 37907 ft 449 kts 236°
2026-05-05 18:22 48.64043 -58.62548 37904 ft 449 kts 236°
2026-05-05 18:23 48.60814 -58.68779 37901 ft 450 kts 235°
2026-05-05 18:23 48.56954 -58.76208 37912 ft 449 kts 236°
2026-05-05 18:24 48.53089 -58.83626 37914 ft 450 kts 235°
2026-05-05 18:24 48.49214 -58.91044 37911 ft 450 kts 235°
2026-05-05 18:25 48.45333 -58.98451 37912 ft 450 kts 235°
2026-05-05 18:25 48.41449 -59.05845 37908 ft 450 kts 236°
2026-05-05 18:26 48.37563 -59.13223 37907 ft 450 kts 236°
2026-05-05 18:26 48.33675 -59.20583 37906 ft 449 kts 236°
2026-05-05 18:27 48.29784 -59.27930 37907 ft 449 kts 235°
2026-05-05 18:27 48.25894 -59.35253 37918 ft 448 kts 236°
2026-05-05 18:28 48.20043 -59.46232 37896 ft 446 kts 236°
2026-05-05 18:28 48.16165 -59.53484 37916 ft 446 kts 236°
2026-05-05 18:29 48.12286 -59.60720 37920 ft 445 kts 236°
2026-05-05 18:29 48.08411 -59.67928 37922 ft 444 kts 236°
2026-05-05 18:30 48.04544 -59.75101 37909 ft 442 kts 236°
2026-05-05 18:30 48.00690 -59.82232 37907 ft 440 kts 236°
2026-05-05 18:31 47.96843 -59.89332 37912 ft 439 kts 236°
2026-05-05 18:31 47.93008 -59.96390 37901 ft 437 kts 236°
2026-05-05 18:32 47.89182 -60.03415 37904 ft 436 kts 236°
2026-05-05 18:32 47.85365 -60.10405 37907 ft 435 kts 235°
2026-05-05 18:33 47.81546 -60.17381 37909 ft 434 kts 235°
2026-05-05 18:33 47.77728 -60.24337 37894 ft 434 kts 235°
2026-05-05 18:34 47.73910 -60.31274 37894 ft 434 kts 235°
2026-05-05 18:34 47.70085 -60.38208 37896 ft 434 kts 235°
2026-05-05 18:35 47.66256 -60.45130 37896 ft 434 kts 235°
2026-05-05 18:35 47.62417 -60.52052 37887 ft 434 kts 235°
2026-05-05 18:36 47.58555 -60.58996 37894 ft 434 kts 235°
2026-05-05 18:36 47.54716 -60.65884 37890 ft 434 kts 235°
2026-05-05 18:37 47.50871 -60.72763 37879 ft 433 kts 235°
2026-05-05 18:37 47.47029 -60.79621 37856 ft 433 kts 234°
2026-05-05 18:38 47.43185 -60.86465 37888 ft 433 kts 234°
2026-05-05 18:38 47.39335 -60.93302 37869 ft 433 kts 234°
2026-05-05 18:39 47.35481 -61.00129 37884 ft 433 kts 234°
2026-05-05 18:39 47.31623 -61.06946 37893 ft 433 kts 234°
2026-05-05 18:40 47.27761 -61.13753 37890 ft 433 kts 234°
2026-05-05 18:40 47.23896 -61.20548 37890 ft 433 kts 234°
2026-05-05 18:41 47.20030 -61.27329 37879 ft 433 kts 234°
2026-05-05 18:41 47.16160 -61.34099 37861 ft 432 kts 234°
2026-05-05 18:42 47.12289 -61.40854 37873 ft 432 kts 234°
2026-05-05 18:42 47.08412 -61.47603 37874 ft 432 kts 234°
2026-05-05 18:43 47.04532 -61.54340 37874 ft 432 kts 234°
2026-05-05 18:43 47.00623 -61.61112 37847 ft 432 kts 234°
2026-05-05 18:44 46.96738 -61.67824 37871 ft 432 kts 234°
2026-05-05 18:44 46.92848 -61.74529 37870 ft 432 kts 234°
2026-05-05 18:45 46.88954 -61.81225 37867 ft 432 kts 233°
2026-05-05 18:45 46.85051 -61.87918 37845 ft 433 kts 233°
2026-05-05 18:46 46.81146 -61.94600 37874 ft 433 kts 233°
2026-05-05 18:46 46.77236 -62.01274 37879 ft 433 kts 233°
2026-05-05 18:47 46.73317 -62.07946 37879 ft 433 kts 233°
2026-05-05 18:47 46.69395 -62.14608 37859 ft 433 kts 233°
2026-05-05 18:48 46.65469 -62.21259 37875 ft 433 kts 233°
2026-05-05 18:48 46.61540 -62.27900 37870 ft 433 kts 233°
2026-05-05 18:49 46.57603 -62.34537 37869 ft 433 kts 233°
2026-05-05 18:49 46.53663 -62.41165 37870 ft 433 kts 233°
2026-05-05 18:50 46.49723 -62.47777 37864 ft 433 kts 232°
2026-05-05 18:50 46.45777 -62.54383 37874 ft 433 kts 232°
2026-05-05 18:51 46.41824 -62.60983 37873 ft 434 kts 232°
2026-05-05 18:51 46.37837 -62.67626 37855 ft 434 kts 232°
2026-05-05 18:52 46.33875 -62.74209 37872 ft 434 kts 232°
2026-05-05 18:52 46.29911 -62.80781 37874 ft 433 kts 232°
2026-05-05 18:53 46.25944 -62.87342 37866 ft 433 kts 232°
2026-05-05 18:53 46.21972 -62.93896 37854 ft 433 kts 232°
2026-05-05 18:54 46.18002 -63.00431 37863 ft 433 kts 232°
2026-05-05 18:54 46.14025 -63.06960 37865 ft 433 kts 232°
2026-05-05 18:55 46.10043 -63.13483 37870 ft 433 kts 232°
2026-05-05 18:55 46.06056 -63.19999 37847 ft 433 kts 232°
2026-05-05 18:56 46.02068 -63.26501 37873 ft 433 kts 232°
2026-05-05 18:56 45.98076 -63.32995 37874 ft 433 kts 232°
2026-05-05 18:57 45.94727 -63.38430 37861 ft 434 kts 232°
2026-05-05 18:57 45.90729 -63.44904 37865 ft 433 kts 232°
2026-05-05 18:58 45.86734 -63.51359 37869 ft 432 kts 232°
2026-05-05 18:58 45.82747 -63.57786 37874 ft 431 kts 232°
2026-05-05 18:59 45.78761 -63.64197 37857 ft 430 kts 232°
2026-05-05 18:59 45.74779 -63.70585 37872 ft 430 kts 232°
2026-05-05 19:00 45.70796 -63.76961 37880 ft 429 kts 232°
2026-05-05 19:00 45.66811 -63.83326 37880 ft 429 kts 232°
2026-05-05 19:01 45.62825 -63.89677 37881 ft 429 kts 232°
2026-05-05 19:01 45.58827 -63.96033 37846 ft 430 kts 232°
2026-05-05 19:02 45.54829 -64.02373 37874 ft 430 kts 232°
2026-05-05 19:02 45.50822 -64.08715 37874 ft 431 kts 232°
2026-05-05 19:03 45.46806 -64.15055 37889 ft 431 kts 232°
2026-05-05 19:03 45.42784 -64.21391 37877 ft 432 kts 232°
2026-05-05 19:04 45.38726 -64.27766 37886 ft 432 kts 231°
2026-05-05 19:04 45.34693 -64.34089 37895 ft 431 kts 231°
2026-05-05 19:05 45.30662 -64.40395 37894 ft 431 kts 231°
2026-05-05 19:05 45.26628 -64.46691 37890 ft 431 kts 231°
2026-05-05 19:06 45.22596 -64.52969 37905 ft 430 kts 231°
2026-05-05 19:06 45.18558 -64.59244 37904 ft 431 kts 231°
2026-05-05 19:07 45.14513 -64.65514 37903 ft 431 kts 231°
2026-05-05 19:07 45.10467 -64.71771 37896 ft 431 kts 231°
2026-05-05 19:08 45.06421 -64.78015 37914 ft 431 kts 231°
2026-05-05 19:08 45.02366 -64.84258 37911 ft 431 kts 231°
2026-05-05 19:09 44.98309 -64.90491 37909 ft 431 kts 231°
2026-05-05 19:09 44.94245 -64.96720 37896 ft 431 kts 231°
2026-05-05 19:10 44.90174 -65.02946 37910 ft 432 kts 231°
2026-05-05 19:10 44.86093 -65.09172 37910 ft 432 kts 231°
2026-05-05 19:11 44.82006 -65.15395 37921 ft 433 kts 231°
2026-05-05 19:11 44.77909 -65.21618 37929 ft 433 kts 231°
2026-05-05 19:12 44.73780 -65.27877 37937 ft 433 kts 231°
2026-05-05 19:12 44.69673 -65.34087 37950 ft 434 kts 231°
2026-05-05 19:13 44.65561 -65.40291 37926 ft 434 kts 230°
2026-05-05 19:13 44.61442 -65.46491 37958 ft 434 kts 230°
2026-05-05 19:14 44.57316 -65.52688 37964 ft 435 kts 230°
2026-05-05 19:14 44.53181 -65.58887 37955 ft 435 kts 230°
2026-05-05 19:15 44.49040 -65.65080 37952 ft 436 kts 230°
2026-05-05 19:15 44.44891 -65.71271 37956 ft 436 kts 230°
2026-05-05 19:16 44.40737 -65.77454 37966 ft 436 kts 230°
2026-05-05 19:16 44.36578 -65.83632 37954 ft 436 kts 230°
2026-05-05 19:17 44.32410 -65.89810 37953 ft 437 kts 230°
2026-05-05 19:17 44.28238 -65.95979 37954 ft 437 kts 230°
2026-05-05 19:18 44.24053 -66.02155 37962 ft 438 kts 230°
2026-05-05 19:18 44.19861 -66.08327 37961 ft 439 kts 229°
2026-05-05 19:19 44.15659 -66.14500 37966 ft 439 kts 229°
2026-05-05 19:19 44.11448 -66.20673 37961 ft 440 kts 229°
2026-05-05 19:20 44.07207 -66.26875 37953 ft 439 kts 229°
2026-05-05 19:20 44.02994 -66.33023 37956 ft 439 kts 229°
2026-05-05 19:21 43.98775 -66.39166 37955 ft 439 kts 229°
2026-05-05 19:21 43.94554 -66.45299 37956 ft 439 kts 229°
2026-05-05 19:22 43.90334 -66.51417 37952 ft 439 kts 229°
2026-05-05 19:22 43.86103 -66.57539 37942 ft 440 kts 229°
2026-05-05 19:23 43.81866 -66.63654 37948 ft 440 kts 229°
2026-05-05 19:23 43.77627 -66.69761 37942 ft 440 kts 229°
2026-05-05 19:24 43.73382 -66.75861 37925 ft 440 kts 229°
2026-05-05 19:24 43.69136 -66.81952 37939 ft 440 kts 229°
2026-05-05 19:25 43.64889 -66.88031 37946 ft 440 kts 229°
2026-05-05 19:25 43.60634 -66.94108 37949 ft 440 kts 228°
2026-05-05 19:26 43.56867 -67.00674 37936 ft 436 kts 240°
2026-05-05 19:26 43.54124 -67.08163 37941 ft 434 kts 249°
2026-05-05 19:27 43.51967 -67.15932 37944 ft 435 kts 250°
2026-05-05 19:27 43.49814 -67.23729 37937 ft 435 kts 250°
2026-05-05 19:28 43.47637 -67.31509 37938 ft 436 kts 250°
2026-05-05 19:28 43.45441 -67.39283 37935 ft 436 kts 249°
2026-05-05 19:29 43.43237 -67.47045 37921 ft 436 kts 249°
2026-05-05 19:29 43.41025 -67.54808 37931 ft 436 kts 249°
2026-05-05 19:30 43.38812 -67.62553 37933 ft 435 kts 249°
2026-05-05 19:30 43.36969 -67.68988 37935 ft 435 kts 249°
2026-05-05 19:31 43.34748 -67.76717 37926 ft 435 kts 249°
2026-05-05 19:31 43.32524 -67.84437 37932 ft 434 kts 249°
2026-05-05 19:32 43.30280 -67.92200 37925 ft 434 kts 249°
2026-05-05 19:32 43.28049 -67.99894 37929 ft 434 kts 249°
2026-05-05 19:33 43.25813 -68.07581 37923 ft 433 kts 249°
2026-05-05 19:33 43.23577 -68.15248 37915 ft 433 kts 248°
2026-05-05 19:34 43.21335 -68.22911 37923 ft 433 kts 248°
2026-05-05 19:35 43.17965 -68.34383 37926 ft 433 kts 248°
2026-05-05 19:35 43.15715 -68.42016 37914 ft 432 kts 248°
2026-05-05 19:36 43.13461 -68.49640 37909 ft 431 kts 248°
2026-05-05 19:36 43.11206 -68.57243 37905 ft 431 kts 248°
2026-05-05 19:37 43.08951 -68.64825 37899 ft 430 kts 248°
2026-05-05 19:37 43.06691 -68.72399 37902 ft 430 kts 248°
2026-05-05 19:38 43.04428 -68.79962 37907 ft 430 kts 248°
2026-05-05 19:38 43.02159 -68.87523 37906 ft 430 kts 248°
2026-05-05 19:39 42.99884 -68.95082 37892 ft 430 kts 248°
2026-05-05 19:39 42.97594 -69.02670 37894 ft 429 kts 248°
2026-05-05 19:40 42.95313 -69.10204 37893 ft 429 kts 248°
2026-05-05 19:40 42.93029 -69.17728 37885 ft 429 kts 248°
2026-05-05 19:41 42.90739 -69.25250 37894 ft 429 kts 247°
2026-05-05 19:41 42.88444 -69.32766 37879 ft 429 kts 247°
2026-05-05 19:42 42.86146 -69.40268 37879 ft 429 kts 247°
2026-05-05 19:42 42.83845 -69.47760 37876 ft 428 kts 247°
2026-05-05 19:43 42.81542 -69.55239 37889 ft 428 kts 247°
2026-05-05 19:43 42.79237 -69.62701 37869 ft 427 kts 247°
2026-05-05 19:44 42.76931 -69.70144 37854 ft 426 kts 247°
2026-05-05 19:44 42.74625 -69.77571 37870 ft 426 kts 247°
2026-05-05 19:45 42.72317 -69.84982 37869 ft 426 kts 247°
2026-05-05 19:45 42.70003 -69.92391 37873 ft 426 kts 247°
2026-05-05 19:46 42.67684 -69.99798 37859 ft 426 kts 247°
2026-05-05 19:46 42.65349 -70.07191 37842 ft 426 kts 246°
2026-05-05 19:47 42.62978 -70.14616 37858 ft 425 kts 246°
2026-05-05 19:47 42.60623 -70.21985 37864 ft 426 kts 246°
2026-05-05 19:48 42.58269 -70.29356 37849 ft 426 kts 246°
2026-05-05 19:48 42.55916 -70.36727 37850 ft 426 kts 246°
2026-05-05 19:49 42.53561 -70.44088 37851 ft 426 kts 246°
2026-05-05 19:49 42.51199 -70.51449 37837 ft 426 kts 246°
2026-05-05 19:50 42.48828 -70.58804 37845 ft 426 kts 246°
2026-05-05 19:50 42.46440 -70.66150 37837 ft 426 kts 246°
2026-05-05 19:51 42.44048 -70.73495 37835 ft 426 kts 246°
2026-05-05 19:51 42.41653 -70.80833 37834 ft 426 kts 246°
2026-05-05 19:52 42.39252 -70.88173 37827 ft 426 kts 246°
2026-05-05 19:52 42.36847 -70.95507 37827 ft 425 kts 246°
2026-05-05 19:53 42.34750 -71.02820 37399 ft 413 kts 252°
2026-05-05 19:53 42.33886 -71.06527 36903 ft 414 kts 252°
2026-05-05 19:53 42.33005 -71.10290 36377 ft 415 kts 252°
2026-05-05 19:53 42.32146 -71.13945 35955 ft 414 kts 252°
2026-05-05 19:54 42.31261 -71.17690 35580 ft 412 kts 252°
2026-05-05 19:54 42.30389 -71.21362 35205 ft 410 kts 252°
2026-05-05 19:54 42.29518 -71.25019 34820 ft 408 kts 252°
2026-05-05 19:54 42.28647 -71.28668 34394 ft 408 kts 252°
2026-05-05 19:55 42.27778 -71.32301 34046 ft 405 kts 252°
2026-05-05 19:55 42.26917 -71.35895 33688 ft 401 kts 252°
2026-05-05 19:55 42.26062 -71.39458 33213 ft 397 kts 253°
2026-05-05 19:55 42.25215 -71.42976 32780 ft 392 kts 253°
2026-05-05 19:56 42.24376 -71.46461 32347 ft 388 kts 253°
2026-05-05 19:56 42.23545 -71.49907 31927 ft 385 kts 253°
2026-05-05 19:56 42.22716 -71.53338 31524 ft 383 kts 253°
2026-05-05 19:56 42.21892 -71.56749 31110 ft 382 kts 253°
2026-05-05 19:57 42.21070 -71.60142 30665 ft 380 kts 253°
2026-05-05 19:57 42.20517 -71.62424 30387 ft 379 kts 253°
2026-05-05 19:57 42.19432 -71.66890 29824 ft 377 kts 253°
2026-05-05 19:57 42.18616 -71.70250 29319 ft 376 kts 253°
2026-05-05 19:58 42.17802 -71.73592 28841 ft 375 kts 253°
2026-05-05 19:58 42.16989 -71.76922 28378 ft 373 kts 253°
2026-05-05 19:58 42.16181 -71.80233 27914 ft 371 kts 253°
2026-05-05 19:58 42.15373 -71.83533 27473 ft 369 kts 253°
2026-05-05 19:59 42.14571 -71.86810 27025 ft 368 kts 253°
2026-05-05 19:59 42.13769 -71.90079 26594 ft 366 kts 253°
2026-05-05 19:59 42.12969 -71.93334 26172 ft 365 kts 253°
2026-05-05 19:59 42.12163 -71.96608 25731 ft 363 kts 252°
2026-05-05 20:00 42.11368 -71.99836 25298 ft 362 kts 252°
2026-05-05 20:00 42.10575 -72.03045 24876 ft 361 kts 252°
2026-05-05 20:00 42.09786 -72.06240 24456 ft 359 kts 252°
2026-05-05 20:00 42.08998 -72.09426 24057 ft 359 kts 252°
2026-05-05 20:01 42.08211 -72.12604 23629 ft 358 kts 252°
2026-05-05 20:01 42.07426 -72.15768 23261 ft 354 kts 252°
2026-05-05 20:01 42.06652 -72.18885 22808 ft 350 kts 252°
2026-05-05 20:01 42.05884 -72.21972 22411 ft 346 kts 252°
2026-05-05 20:02 42.05125 -72.25019 22009 ft 342 kts 252°
2026-05-05 20:02 42.04372 -72.28037 21595 ft 338 kts 252°
2026-05-05 20:02 42.03628 -72.31020 21205 ft 335 kts 252°
2026-05-05 20:02 42.02889 -72.33976 20820 ft 332 kts 252°
2026-05-05 20:03 42.02157 -72.36903 20429 ft 329 kts 252°
2026-05-05 20:03 42.01427 -72.39814 20029 ft 327 kts 251°
2026-05-05 20:03 42.00704 -72.42697 19647 ft 324 kts 251°
2026-05-05 20:03 42.00228 -72.44593 19394 ft 323 kts 251°
2026-05-05 20:04 41.99270 -72.48403 18877 ft 320 kts 251°
2026-05-05 20:04 41.98796 -72.50283 18621 ft 319 kts 251°
2026-05-05 20:04 41.98087 -72.53098 18231 ft 318 kts 251°
2026-05-05 20:04 41.97378 -72.55906 17797 ft 317 kts 251°
2026-05-05 20:05 41.96673 -72.58700 17380 ft 315 kts 251°
2026-05-05 20:05 41.95962 -72.61509 16972 ft 312 kts 251°
2026-05-05 20:05 41.95266 -72.64259 16578 ft 309 kts 251°
2026-05-05 20:05 41.94576 -72.66978 16175 ft 307 kts 251°
2026-05-05 20:06 41.93899 -72.69662 15978 ft 298 kts 252°
2026-05-05 20:06 41.93270 -72.72275 15980 ft 293 kts 253°
2026-05-05 20:06 41.92654 -72.74871 15968 ft 291 kts 253°
2026-05-05 20:06 41.92040 -72.77466 15974 ft 291 kts 253°
2026-05-05 20:07 41.91425 -72.80062 15960 ft 293 kts 253°
2026-05-05 20:07 41.90805 -72.82674 15965 ft 294 kts 252°
2026-05-05 20:07 41.90182 -72.85290 15970 ft 296 kts 252°
2026-05-05 20:07 41.89554 -72.87925 15972 ft 296 kts 252°
2026-05-05 20:08 41.88923 -72.90562 15976 ft 297 kts 253°
2026-05-05 20:08 41.88292 -72.93201 15976 ft 297 kts 253°
2026-05-05 20:08 41.87662 -72.95828 16010 ft 297 kts 253°
2026-05-05 20:08 41.87028 -72.98471 15993 ft 296 kts 253°
2026-05-05 20:09 41.86397 -73.01097 15986 ft 295 kts 253°
2026-05-05 20:09 41.85769 -73.03713 15984 ft 294 kts 253°
2026-05-05 20:09 41.85144 -73.06316 15973 ft 293 kts 253°
2026-05-05 20:09 41.84518 -73.08904 15996 ft 291 kts 253°
2026-05-05 20:10 41.83895 -73.11477 15986 ft 290 kts 253°
2026-05-05 20:10 41.83272 -73.14047 15992 ft 289 kts 253°
2026-05-05 20:10 41.82652 -73.16611 15991 ft 289 kts 253°
2026-05-05 20:10 41.82031 -73.19170 15999 ft 288 kts 253°
2026-05-05 20:11 41.81411 -73.21725 16001 ft 289 kts 253°
2026-05-05 20:11 41.80788 -73.24290 15987 ft 290 kts 253°
2026-05-05 20:11 41.80163 -73.26868 15986 ft 291 kts 253°
2026-05-05 20:11 41.79537 -73.29451 15986 ft 292 kts 253°
2026-05-05 20:12 41.78907 -73.32043 15998 ft 293 kts 253°
2026-05-05 20:12 41.78273 -73.34639 15995 ft 293 kts 253°
2026-05-05 20:12 41.77638 -73.37239 15979 ft 294 kts 252°
2026-05-05 20:12 41.76993 -73.39876 15974 ft 294 kts 252°
2026-05-05 20:13 41.76356 -73.42479 15973 ft 294 kts 253°
2026-05-05 20:13 41.75718 -73.45083 15971 ft 294 kts 253°
2026-05-05 20:13 41.75079 -73.47685 15964 ft 294 kts 253°
2026-05-05 20:13 41.74442 -73.50282 15964 ft 293 kts 253°
2026-05-05 20:14 41.73804 -73.52874 15944 ft 292 kts 253°
2026-05-05 20:14 41.73170 -73.55452 15955 ft 291 kts 253°
2026-05-05 20:14 41.72537 -73.58026 15942 ft 291 kts 253°
2026-05-05 20:14 41.71904 -73.60597 15942 ft 290 kts 253°
2026-05-05 20:15 41.71270 -73.63164 15946 ft 290 kts 252°
2026-05-05 20:15 41.70637 -73.65725 15954 ft 290 kts 252°
2026-05-05 20:15 41.70004 -73.68285 15944 ft 289 kts 253°
2026-05-05 20:15 41.69373 -73.70834 15952 ft 288 kts 252°
2026-05-05 20:16 41.68743 -73.73377 15946 ft 288 kts 252°
2026-05-05 20:16 41.68116 -73.75902 15934 ft 281 kts 252°
2026-05-05 20:16 41.67511 -73.78335 15936 ft 270 kts 252°
2026-05-05 20:16 41.66926 -73.80684 15933 ft 264 kts 252°
2026-05-05 20:17 41.66352 -73.83008 15941 ft 263 kts 253°
2026-05-05 20:17 41.65799 -73.85335 15947 ft 263 kts 253°
2026-05-05 20:17 41.65251 -73.87664 15783 ft 262 kts 253°
2026-05-05 20:17 41.64705 -73.89983 15472 ft 260 kts 253°
2026-05-05 20:18 41.64164 -73.92279 15153 ft 258 kts 253°
2026-05-05 20:18 41.63627 -73.94553 14833 ft 256 kts 253°
2026-05-05 20:18 41.63093 -73.96811 14512 ft 253 kts 253°
2026-05-05 20:18 41.62563 -73.99046 14207 ft 251 kts 253°
2026-05-05 20:19 41.62038 -74.01261 13924 ft 247 kts 252°
2026-05-05 20:19 41.61529 -74.03404 13627 ft 239 kts 253°
2026-05-05 20:19 41.61019 -74.05554 12949 ft 243 kts 253°
2026-05-05 20:19 41.60511 -74.07687 12563 ft 244 kts 253°
2026-05-05 20:20 41.59992 -74.09864 12237 ft 242 kts 252°
2026-05-05 20:20 41.59483 -74.11997 11892 ft 241 kts 252°
2026-05-05 20:20 41.58977 -74.14123 11543 ft 240 kts 252°
2026-05-05 20:20 41.58470 -74.16244 11215 ft 240 kts 252°
2026-05-05 20:21 41.57964 -74.18363 10887 ft 239 kts 252°
2026-05-05 20:21 41.57459 -74.20473 10576 ft 238 kts 252°
2026-05-05 20:21 41.56955 -74.22578 10229 ft 238 kts 251°
2026-05-05 20:21 41.56449 -74.24686 9908 ft 238 kts 251°
2026-05-05 20:22 41.55946 -74.26780 9649 ft 235 kts 251°
2026-05-05 20:22 41.55446 -74.28866 9245 ft 237 kts 250°
2026-05-05 20:22 41.54937 -74.30958 8897 ft 234 kts 248°
2026-05-05 20:22 41.54070 -74.32774 8359 ft 237 kts 225°
2026-05-05 20:23 41.52737 -74.34080 8014 ft 239 kts 210°
2026-05-05 20:23 41.51182 -74.34887 7713 ft 240 kts 202°
2026-05-05 20:23 41.49579 -74.35548 7356 ft 242 kts 201°
2026-05-05 20:23 41.47980 -74.36201 7109 ft 240 kts 201°
2026-05-05 20:24 41.46416 -74.36854 7034 ft 233 kts 202°
2026-05-05 20:24 41.44862 -74.37516 7008 ft 237 kts 202°
2026-05-05 20:24 41.43280 -74.38196 6980 ft 240 kts 202°
2026-05-05 20:24 41.41690 -74.38876 6974 ft 239 kts 202°
2026-05-05 20:25 41.40105 -74.39559 6989 ft 240 kts 202°
2026-05-05 20:25 41.38507 -74.40246 6978 ft 241 kts 202°
2026-05-05 20:25 41.36910 -74.40931 6976 ft 241 kts 202°
2026-05-05 20:25 41.35313 -74.41617 6975 ft 240 kts 202°
2026-05-05 20:26 41.33727 -74.42298 6959 ft 239 kts 202°
2026-05-05 20:26 41.32145 -74.42976 6975 ft 239 kts 202°
2026-05-05 20:26 41.30563 -74.43649 6969 ft 237 kts 199°
2026-05-05 20:26 41.28878 -74.43753 6990 ft 251 kts 175°
2026-05-05 20:27 41.27210 -74.42894 6984 ft 264 kts 156°
2026-05-05 20:27 41.25656 -74.41553 6988 ft 266 kts 154°
2026-05-05 20:27 41.24114 -74.40195 6985 ft 265 kts 154°
2026-05-05 20:27 41.22582 -74.38845 6979 ft 264 kts 154°
2026-05-05 20:28 41.21052 -74.37498 6983 ft 263 kts 154°
2026-05-05 20:28 41.19524 -74.36159 6987 ft 263 kts 154°
2026-05-05 20:28 41.17995 -74.34824 6970 ft 263 kts 154°
2026-05-05 20:28 41.16467 -74.33487 6983 ft 263 kts 154°
2026-05-05 20:29 41.14935 -74.32157 6961 ft 262 kts 154°
2026-05-05 20:29 41.13417 -74.30840 6760 ft 260 kts 154°
2026-05-05 20:29 41.11908 -74.29526 6441 ft 259 kts 154°
2026-05-05 20:29 41.10406 -74.28214 6023 ft 260 kts 151°
2026-05-05 20:30 41.08902 -74.26886 5750 ft 258 kts 153°
2026-05-05 20:30 41.07408 -74.25604 5526 ft 255 kts 153°
2026-05-05 20:30 41.05927 -74.24328 5244 ft 254 kts 153°
2026-05-05 20:30 41.04449 -74.23057 4923 ft 254 kts 153°
2026-05-05 20:31 41.02963 -74.21786 4658 ft 253 kts 153°
2026-05-05 20:31 41.01492 -74.20520 4385 ft 251 kts 153°
2026-05-05 20:31 41.00044 -74.19270 4147 ft 247 kts 153°
2026-05-05 20:31 40.98599 -74.18026 3775 ft 249 kts 153°
2026-05-05 20:32 40.97143 -74.16774 3460 ft 250 kts 153°
2026-05-05 20:32 40.95691 -74.15524 3207 ft 247 kts 153°
2026-05-05 20:32 40.94274 -74.14300 3079 ft 238 kts 154°
2026-05-05 20:32 40.92919 -74.13130 3010 ft 227 kts 154°
2026-05-05 20:33 40.91638 -74.12023 2996 ft 213 kts 154°
2026-05-05 20:33 40.90443 -74.10992 3029 ft 197 kts 154°
2026-05-05 20:33 40.89339 -74.10042 3002 ft 183 kts 155°
2026-05-05 20:33 40.88305 -74.09154 2989 ft 175 kts 156°
2026-05-05 20:34 40.87293 -74.08290 2958 ft 171 kts 156°
2026-05-05 20:34 40.86285 -74.07429 2989 ft 174 kts 156°
2026-05-05 20:34 40.85240 -74.06657 2981 ft 168 kts 172°
2026-05-05 20:34 40.84163 -74.06806 2861 ft 152 kts 209°
2026-05-05 20:35 40.83263 -74.07474 2769 ft 147 kts 211°
2026-05-05 20:35 40.82365 -74.08102 2631 ft 141 kts 211°
2026-05-05 20:35 40.81464 -74.08638 2553 ft 146 kts 198°
2026-05-05 20:35 40.80450 -74.08630 2408 ft 145 kts 182°
2026-05-05 20:36 40.79463 -74.08560 2263 ft 138 kts 184°
2026-05-05 20:36 40.78508 -74.08504 2090 ft 137 kts 185°
2026-05-05 20:36 40.77555 -74.08443 1938 ft 138 kts 184°
2026-05-05 20:36 40.76598 -74.08377 1796 ft 138 kts 184°
2026-05-05 20:37 40.75953 -74.08338 1693 ft 142 kts 183°
2026-05-05 20:37 40.74958 -74.08265 1586 ft 143 kts 182°
2026-05-05 20:37 40.73986 -74.08190 1446 ft 137 kts 184°
2026-05-05 20:37 40.73067 -74.08302 1414 ft 133 kts 207°
2026-05-05 20:38 40.72257 -74.08897 1367 ft 133 kts 211°
2026-05-05 20:38 40.71456 -74.09474 1154 ft 129 kts 212°
2026-05-05 20:38 40.70660 -74.10040 1042 ft 132 kts 212°
2026-05-05 20:38 40.69954 -74.10811 965 ft 135 kts 238°
2026-05-05 20:39 40.69873 -74.12087 708 ft 151 kts 277°
2026-05-05 20:39 40.70000 -74.13450 451 ft 146 kts 271°
2026-05-05 20:39 40.70068 -74.14737 265 ft 135 kts 268°
2026-05-05 20:39 40.70146 -74.15947 47 ft 134 kts 268°
2026-05-05 20:40 40.70209 -74.17010 27 ft 77 kts 276°
2026-05-05 20:40 40.70239 -74.17458 28 ft 34 kts 275°
2026-05-05 20:40 40.70230 -74.17688 27 ft 22 kts 253°
2026-05-05 20:40 40.70191 -74.17807 27 ft 12 kts 244°
2026-05-05 20:41 40.70171 -74.17860 27 ft 2 kts 242°
2026-05-05 20:41 40.70156 -74.17863 27 ft 2 kts 171°
2026-05-05 20:41 40.70149 -74.17845 27 ft 3 kts 104°
2026-05-05 20:41 40.70149 -74.17778 27 ft 9 kts 91°
2026-05-05 20:42 40.70146 -74.17694 27 ft 9 kts 94°
2026-05-05 20:42 40.70140 -74.17608 27 ft 11 kts 95°
2026-05-05 20:42 40.70134 -74.17501 27 ft 12 kts 95°
2026-05-05 20:42 40.70126 -74.17399 27 ft 9 kts 96°
2026-05-05 20:43 40.70085 -74.17360 27 ft 8 kts 187°
2026-05-05 20:43 40.70027 -74.17373 27 ft 8 kts 186°
2026-05-05 20:43 40.69968 -74.17380 26 ft 8 kts 185°
2026-05-05 20:43 40.69909 -74.17387 26 ft 8 kts 185°
2026-05-05 20:44 40.69854 -74.17370 26 ft 8 kts 139°
2026-05-05 20:44 40.69819 -74.17308 26 ft 8 kts 129°
2026-05-05 20:44 40.69778 -74.17252 26 ft 8 kts 135°
2026-05-05 20:44 40.69735 -74.17199 26 ft 8 kts 141°
2026-05-05 20:45 40.69632 -74.17122 26 ft 8 kts 157°
2026-05-05 20:45 40.69577 -74.17097 26 ft 8 kts 163°
2026-05-05 20:45 40.69517 -74.17078 26 ft 10 kts 169°
2026-05-05 20:46 40.69449 -74.17068 26 ft 10 kts 176°
2026-05-05 20:46 40.69381 -74.17069 26 ft 10 kts 184°
2026-05-05 20:46 40.69315 -74.17095 26 ft 10 kts 206°
2026-05-05 20:46 40.69255 -74.17134 26 ft 10 kts 206°
2026-05-05 20:47 40.69193 -74.17174 26 ft 10 kts 206°
2026-05-05 20:47 40.69131 -74.17213 26 ft 10 kts 205°
2026-05-05 20:47 40.69068 -74.17253 26 ft 11 kts 206°
2026-05-05 20:47 40.68989 -74.17304 26 ft 14 kts 205°
2026-05-05 20:48 40.68901 -74.17360 26 ft 14 kts 206°
2026-05-05 20:48 40.68840 -74.17400 27 ft 6 kts 209°
2026-05-05 20:48 40.68827 -74.17447 27 ft 6 kts 284°
2026-05-05 20:48 40.68844 -74.17496 27 ft 6 kts 295°
2026-05-05 20:49 40.68862 -74.17546 27 ft 6 kts 295°
2026-05-05 20:49 40.68874 -74.17579 27 ft 6 kts 295°